Melfa, VA

9:49 PM EDT on June 27, 2017 (GMT -0400)
Accomack County

Weather History for KMFV - December, 2013

Change the Weather History Date:

Thursday, December 19, 2013

  Actual Average (KWAL) Record (KWAL)
Temperature  
Mean Temperature 46 °F -  
Max Temperature 60 °F 46 °F 70 °F (1984)
Min Temperature 33 °F 30 °F 15 °F (1985)
Degree Days  
Heating Degree Days 18    
Moisture  
Dew Point 28 °F    
Average Humidity 47    
Maximum Humidity 87    
Minimum Humidity 27    
Precipitation  
Precipitation 0.00 in - - ()
Sea Level Pressure  
Sea Level Pressure 30.22 in    
Wind  
Wind Speed 9 mph (SW)    
Max Wind Speed 18 mph    
Max Gust Speed 31 mph    
Visibility 10 miles    
Events      
Averages and records for this station are not official NWS values.
T = Trace of Precipitation, MM = Missing Value Source: NWS Daily Summary

Daily Weather History Graph

Daily Weather History Graph

Search for Another Location

Airport or City:

Trip Planner

Search our weather history database for the weather conditions in past years. The results will help you decide how hot, cold, wet, or windy it might be!

Date:

Astronomy

Dec. 19, 2013 Rise Set
Actual Time 7:13 AM EST 4:47 PM EST
Civil Twilight 6:44 AM EST 5:16 PM EST
Nautical Twilight 6:11 AM EST 5:49 PM EST
Astronomical Twilight 5:39 AM EST 6:21 PM EST
Moon 7:08 PM EST (12/19) 8:32 AM EST (12/19)
Length of Visible Light 10h 32m
Length of Day
9h 33m
Waning Gibbous, 95% of the Moon is Illuminated
Dec 19
Waning Gibbous
Dec 25
Last Quarter
Jan 1
New
Jan 7
First Quarter
Jan 15
Full

Hourly Weather History & Observations

Time (EST) Temp. Windchill Dew Point Humidity Pressure Visibility Wind Dir Wind Speed Gust Speed Precip Events Conditions
12:15 AM 33.8 °F 28.6 °F 30.2 °F 87% 30.25 in 10.0 mi South 5.8 mph - N/A   Clear
12:35 AM 35.6 °F 30.7 °F 30.2 °F 81% 30.25 in 10.0 mi South 5.8 mph - N/A   Clear
12:55 AM 35.6 °F 30.7 °F 30.2 °F 81% 30.24 in 10.0 mi South 5.8 mph - N/A   Clear
1:15 AM 37.4 °F 32.8 °F 30.2 °F 75% 30.24 in 10.0 mi SSW 5.8 mph - N/A   Clear
1:36 AM 35.6 °F 30.7 °F 30.2 °F 81% 30.24 in 10.0 mi SSW 5.8 mph - N/A   Clear
1:55 AM 35.6 °F 31.7 °F 30.2 °F 81% 30.25 in 10.0 mi SSW 4.6 mph - N/A   Clear
2:15 AM 35.6 °F 32.8 °F 30.2 °F 81% 30.25 in 10.0 mi South 3.5 mph - N/A   Clear
2:35 AM 33.8 °F 29.6 °F 30.2 °F 87% 30.25 in 10.0 mi SSW 4.6 mph - N/A   Clear
2:55 AM 35.6 °F 30.7 °F 30.2 °F 81% 30.25 in 10.0 mi SSW 5.8 mph - N/A   Clear
3:15 AM 35.6 °F 30.7 °F 30.2 °F 81% 30.26 in 10.0 mi SSW 5.8 mph - N/A   Clear
3:35 AM 35.6 °F 29.9 °F 30.2 °F 81% 30.25 in 10.0 mi South 6.9 mph - N/A   Clear
3:55 AM 37.4 °F 32.1 °F 30.2 °F 75% 30.24 in 10.0 mi South 6.9 mph - N/A   Clear
4:15 AM 37.4 °F 32.8 °F 30.2 °F 75% 30.24 in 10.0 mi SSW 5.8 mph - N/A   Clear
4:35 AM 37.4 °F 33.8 °F 30.2 °F 75% 30.24 in 10.0 mi South 4.6 mph - N/A   Clear
4:55 AM 37.4 °F 33.8 °F 30.2 °F 75% 30.24 in 10.0 mi SSW 4.6 mph - N/A   Clear
5:15 AM 35.6 °F 30.7 °F 30.2 °F 81% 30.25 in 10.0 mi SSW 5.8 mph - N/A   Clear
5:35 AM 35.6 °F 30.7 °F 30.2 °F 81% 30.24 in 10.0 mi SSW 5.8 mph - N/A   Clear
5:55 AM 37.4 °F 33.8 °F 30.2 °F 75% 30.25 in 10.0 mi SSW 4.6 mph - N/A   Clear
6:15 AM 35.6 °F 29.9 °F 30.2 °F 81% 30.24 in 10.0 mi SSW 6.9 mph - N/A   Clear
6:35 AM 39.2 °F 35.0 °F 30.2 °F 70% 30.24 in 10.0 mi SSW 5.8 mph - N/A   Clear
6:55 AM 39.2 °F 34.2 °F 30.2 °F 70% 30.24 in 10.0 mi SSW 6.9 mph - N/A   Clear
7:15 AM 41.0 °F 35.8 °F 30.2 °F 65% 30.24 in 10.0 mi SW 8.1 mph - N/A   Clear
7:35 AM 42.8 °F 37.0 °F 30.2 °F 61% 30.25 in 10.0 mi SW 10.4 mph - N/A   Clear
7:55 AM 42.8 °F 37.0 °F 30.2 °F 61% 30.24 in 10.0 mi SSW 10.4 mph - N/A   Clear
8:15 AM 44.6 °F 38.8 °F 28.4 °F 53% 30.24 in 10.0 mi SSW 11.5 mph - N/A   Clear
8:35 AM 46.4 °F 41.1 °F 28.4 °F 50% 30.25 in 10.0 mi SW 11.5 mph - N/A   Clear
8:55 AM 46.4 °F 41.9 °F 28.4 °F 50% 30.25 in 10.0 mi SW 9.2 mph - N/A   Clear
9:16 AM 48.2 °F - 28.4 °F 46% 30.25 in 10.0 mi SW 11.5 mph 16.1 mph N/A   Clear
9:35 AM 51.8 °F - 28.4 °F 41% 30.25 in 10.0 mi SW 16.1 mph 23.0 mph N/A   Clear
9:55 AM 51.8 °F - 26.6 °F 38% 30.24 in 10.0 mi SSW 13.8 mph - N/A   Clear
10:15 AM 53.6 °F - 26.6 °F 35% 30.25 in 10.0 mi SW 15.0 mph 19.6 mph N/A   Clear
10:35 AM 53.6 °F - 26.6 °F 35% 30.25 in 10.0 mi SW 11.5 mph 18.4 mph N/A   Clear
10:55 AM 55.4 °F - 26.6 °F 33% 30.24 in 10.0 mi SW 18.4 mph 25.3 mph N/A   Clear
11:15 AM 55.4 °F - 26.6 °F 33% 30.23 in 10.0 mi SW 15.0 mph 23.0 mph N/A   Clear
11:35 AM 55.4 °F - 26.6 °F 33% 30.22 in 10.0 mi SW 15.0 mph 31.1 mph N/A   Clear
11:56 AM 57.2 °F - 26.6 °F 31% 30.21 in 10.0 mi SW 17.3 mph 24.2 mph N/A   Clear
12:15 PM 57.2 °F - 26.6 °F 31% 30.20 in 10.0 mi SW 15.0 mph 23.0 mph N/A   Clear
12:35 PM 59.0 °F - 26.6 °F 29% 30.20 in 10.0 mi SW 15.0 mph 23.0 mph N/A   Clear
12:55 PM 59.0 °F - 26.6 °F 29% 30.19 in 10.0 mi SW 16.1 mph 27.6 mph N/A   Clear
1:15 PM 59.0 °F - 26.6 °F 29% 30.18 in 10.0 mi SW 18.4 mph 21.9 mph N/A   Clear
1:35 PM 60.8 °F - 26.6 °F 27% 30.18 in 10.0 mi SW 17.3 mph 25.3 mph N/A   Clear
1:55 PM 60.8 °F - 26.6 °F 27% 30.17 in 10.0 mi SW 13.8 mph - N/A   Clear
2:15 PM 60.8 °F - 26.6 °F 27% 30.17 in 10.0 mi SW 10.4 mph 17.3 mph N/A   Clear
2:35 PM 60.8 °F - 26.6 °F 27% 30.17 in 10.0 mi SW 15.0 mph 20.7 mph N/A   Clear
2:55 PM 60.8 °F - 26.6 °F 27% 30.17 in 10.0 mi SW 11.5 mph 20.7 mph N/A   Clear
3:15 PM 60.8 °F - 26.6 °F 27% 30.17 in 10.0 mi SW 12.7 mph 18.4 mph N/A   Clear
3:35 PM 60.8 °F - 26.6 °F 27% 30.17 in 10.0 mi SW 12.7 mph 19.6 mph N/A   Clear
3:55 PM 60.8 °F - 26.6 °F 27% 30.18 in 10.0 mi SW 11.5 mph - N/A   Clear
4:17 PM 60.8 °F - 26.6 °F 27% 30.18 in 10.0 mi SSW 10.4 mph - N/A   Clear
4:35 PM 59.0 °F - 26.6 °F 29% 30.18 in 10.0 mi SSW 10.4 mph 16.1 mph N/A   Clear
4:55 PM 59.0 °F - 26.6 °F 29% 30.19 in 10.0 mi SSW 10.4 mph 16.1 mph N/A   Clear
5:15 PM 57.2 °F - 28.4 °F 33% 30.19 in 10.0 mi SSW 11.5 mph 17.3 mph N/A   Clear
5:36 PM 57.2 °F - 26.6 °F 31% 30.20 in 10.0 mi SSW 10.4 mph 17.3 mph N/A   Clear
5:55 PM 57.2 °F - 26.6 °F 31% 30.20 in 10.0 mi SSW 10.4 mph 20.7 mph N/A   Clear
6:15 PM 57.2 °F - 26.6 °F 31% 30.20 in 10.0 mi SW 12.7 mph 17.3 mph N/A   Clear
6:35 PM 57.2 °F - 26.6 °F 31% 30.20 in 10.0 mi SSW 11.5 mph 19.6 mph N/A   Clear
6:55 PM 57.2 °F - 26.6 °F 31% 30.21 in 10.0 mi SSW 15.0 mph 20.7 mph N/A   Clear
7:15 PM 57.2 °F - 26.6 °F 31% 30.21 in 10.0 mi SW 16.1 mph 19.6 mph N/A   Clear
7:35 PM 57.2 °F - 26.6 °F 31% 30.21 in 10.0 mi SW 15.0 mph 21.9 mph N/A   Clear
7:55 PM 57.2 °F - 26.6 °F 31% 30.22 in 10.0 mi SW 12.7 mph 19.6 mph N/A   Clear
8:15 PM 57.2 °F - 26.6 °F 31% 30.22 in 10.0 mi SW 10.4 mph 17.3 mph N/A   Clear
8:35 PM 57.2 °F - 26.6 °F 31% 30.22 in 10.0 mi SW 12.7 mph 20.7 mph N/A   Clear
8:55 PM 57.2 °F - 26.6 °F 31% 30.22 in 10.0 mi SW 10.4 mph 18.4 mph N/A   Clear
9:16 PM 57.2 °F - 26.6 °F 31% 30.22 in 10.0 mi SW 12.7 mph 18.4 mph N/A   Clear
9:35 PM 57.2 °F - 26.6 °F 31% 30.22 in 10.0 mi SW 10.4 mph - N/A   Clear
9:55 PM 57.2 °F - 26.6 °F 31% 30.22 in 10.0 mi SW 11.5 mph 18.4 mph N/A   Clear
10:15 PM 57.2 °F - 28.4 °F 33% 30.22 in 10.0 mi SW 10.4 mph 17.3 mph N/A   Clear
10:35 PM 57.2 °F - 28.4 °F 33% 30.21 in 10.0 mi SW 11.5 mph - N/A   Clear
10:55 PM 57.2 °F - 28.4 °F 33% 30.20 in 10.0 mi SW 12.7 mph 17.3 mph N/A   Clear
11:16 PM 57.2 °F - 28.4 °F 33% 30.21 in 10.0 mi SW 11.5 mph 18.4 mph N/A   Clear
11:35 PM 57.2 °F - 28.4 °F 33% 30.20 in 10.0 mi SW 10.4 mph 17.3 mph N/A   Clear
11:55 PM 55.4 °F - 28.4 °F 36% 30.21 in 10.0 mi SW 9.2 mph - N/A   Clear